Great Bend, KS

2:14 PM CDT on April 30, 2017 (GMT -0500)
Great Bend Municipal

Weather History for KGBD - November, 2013

Change the Weather History Date:

Monday, November 4, 2013

  Actual Average Record
Temperature  
Mean Temperature 50 °F -  
Max Temperature 60 °F 58 °F 79 °F (1978)
Min Temperature 41 °F 36 °F 11 °F (1991)
Degree Days  
Heating Degree Days 14    
Moisture  
Dew Point 35 °F    
Average Humidity 56    
Maximum Humidity 76    
Minimum Humidity 36    
Precipitation  
Precipitation 0.00 in - - ()
Sea Level Pressure  
Sea Level Pressure 29.91 in    
Wind  
Wind Speed 18 mph (NNE)    
Max Wind Speed 29 mph    
Max Gust Speed 37 mph    
Visibility 10 miles    
Events      
Averages and records for this station are not official NWS values.
T = Trace of Precipitation, MM = Missing Value Source: NWS Daily Summary

Daily Weather History Graph

Daily Weather History Graph

Search for Another Location

Airport or City:

Trip Planner

Search our weather history database for the weather conditions in past years. The results will help you decide how hot, cold, wet, or windy it might be!

Date:

Astronomy

Nov. 04, 2013 Rise Set
Actual Time 7:05 AM CST 5:32 PM CST
Civil Twilight 6:37 AM CST 5:59 PM CST
Nautical Twilight 6:06 AM CST 6:31 PM CST
Astronomical Twilight 5:35 AM CST 7:02 PM CST
Moon 8:16 AM CST (11/4) 6:39 PM CST (11/4)
Length of Visible Light 11h 22m
Length of Day
10h 27m
New Moon, 2% of the Moon is Illuminated
Nov 4
New Moon
Nov 9
First Quarter
Nov 17
Full
Nov 25
Last Quarter
Dec 2
New

Hourly Weather History & Observations

Time (CST) Temp. Windchill Dew Point Humidity Pressure Visibility Wind Dir Wind Speed Gust Speed Precip Events Conditions
12:15 AM 50.0 °F - 35.6 °F 58% 29.69 in 10.0 mi South 28.8 mph 36.8 mph N/A   Clear
12:35 AM 50.0 °F - 35.6 °F 58% 29.69 in 10.0 mi South 26.5 mph 35.7 mph N/A   Clear
12:55 AM 50.0 °F - 35.6 °F 58% 29.69 in 10.0 mi South 23.0 mph 34.5 mph N/A   Clear
1:15 AM 50.0 °F - 35.6 °F 58% 29.71 in 10.0 mi South 20.7 mph 28.8 mph N/A   Clear
1:35 AM 48.2 °F - 35.6 °F 62% 29.70 in 10.0 mi South 24.2 mph 29.9 mph N/A   Clear
1:55 AM 48.2 °F - 35.6 °F 62% 29.69 in 10.0 mi South 24.2 mph 29.9 mph N/A   Clear
2:15 AM 48.2 °F - 35.6 °F 62% 29.69 in 10.0 mi South 25.3 mph 31.1 mph N/A   Clear
2:35 AM 48.2 °F - 37.4 °F 66% 29.70 in 10.0 mi South 24.2 mph 29.9 mph N/A   Clear
2:55 AM 48.2 °F - 37.4 °F 66% 29.69 in 10.0 mi South 24.2 mph 29.9 mph N/A   Clear
3:15 AM 48.2 °F - 37.4 °F 66% 29.69 in 10.0 mi South 23.0 mph 28.8 mph N/A   Clear
3:35 AM 48.2 °F - 37.4 °F 66% 29.70 in 10.0 mi South 20.7 mph - N/A   Clear
3:55 AM 48.2 °F - 37.4 °F 66% 29.72 in 10.0 mi SSW 18.4 mph - N/A   Clear
4:15 AM 48.2 °F - 37.4 °F 66% 29.73 in 10.0 mi SSW 15.0 mph - N/A   Clear
4:35 AM 46.4 °F 40.4 °F 37.4 °F 71% 29.74 in 10.0 mi SSW 13.8 mph - N/A   Clear
4:55 AM 46.4 °F 40.4 °F 37.4 °F 71% 29.75 in 10.0 mi SW 13.8 mph - N/A   Clear
5:15 AM 46.4 °F 39.5 °F 37.4 °F 71% 29.76 in 10.0 mi WSW 17.3 mph - N/A   Clear
5:35 AM 44.6 °F 38.4 °F 33.8 °F 66% 29.78 in 10.0 mi West 12.7 mph - N/A   Clear
5:55 AM 42.8 °F 36.2 °F 32.0 °F 66% 29.79 in 10.0 mi West 12.7 mph - N/A   Clear
6:15 AM 41.0 °F 33.9 °F 32.0 °F 70% 29.79 in 10.0 mi West 12.7 mph - N/A   Clear
6:35 AM 41.0 °F 34.3 °F 32.0 °F 70% 29.82 in 10.0 mi West 11.5 mph - N/A   Clear
6:55 AM 41.0 °F 34.3 °F 33.8 °F 76% 29.83 in 10.0 mi West 11.5 mph - N/A   Clear
7:15 AM 42.8 °F 36.2 °F 33.8 °F 70% 29.84 in 10.0 mi WNW 12.7 mph 18.4 mph N/A   Clear
7:35 AM 42.8 °F 36.2 °F 33.8 °F 70% 29.86 in 10.0 mi NW 12.7 mph - N/A   Clear
7:55 AM 44.6 °F 37.2 °F 33.8 °F 66% 29.88 in 10.0 mi NW 17.3 mph 24.2 mph N/A   Clear
8:15 AM 46.4 °F 39.5 °F 33.8 °F 62% 29.90 in 10.0 mi NNW 17.3 mph 26.5 mph N/A   Clear
8:35 AM 48.2 °F - 33.8 °F 58% 29.92 in 10.0 mi NNW 18.4 mph 28.8 mph N/A   Clear
8:55 AM 48.2 °F - 35.6 °F 62% 29.93 in 10.0 mi NNW 18.4 mph 26.5 mph N/A   Clear
9:15 AM 50.0 °F - 35.6 °F 58% 29.95 in 10.0 mi NNW 23.0 mph 27.6 mph N/A   Clear
9:35 AM 51.8 °F - 35.6 °F 54% 29.96 in 10.0 mi North 19.6 mph 24.2 mph N/A   Clear
9:55 AM 51.8 °F - 35.6 °F 54% 29.97 in 10.0 mi North 23.0 mph 26.5 mph N/A   Clear
10:15 AM 53.6 °F - 35.6 °F 51% 29.97 in 10.0 mi North 21.9 mph 25.3 mph N/A   Clear
10:35 AM 55.4 °F - 35.6 °F 47% 29.97 in 10.0 mi North 20.7 mph 27.6 mph N/A   Clear
10:55 AM 57.2 °F - 35.6 °F 44% 29.97 in 10.0 mi North 25.3 mph 29.9 mph N/A   Clear
11:15 AM 57.2 °F - 35.6 °F 44% 29.97 in 10.0 mi North 24.2 mph 28.8 mph N/A   Clear
11:35 AM 59.0 °F - 35.6 °F 42% 29.97 in 10.0 mi North 23.0 mph 28.8 mph N/A   Clear
11:55 AM 59.0 °F - 35.6 °F 42% 29.98 in 10.0 mi North 18.4 mph 27.6 mph N/A   Clear
12:15 PM 59.0 °F - 35.6 °F 42% 29.98 in 10.0 mi North 20.7 mph 25.3 mph N/A   Clear
12:35 PM 60.8 °F - 35.6 °F 39% 29.98 in 10.0 mi North 19.6 mph 25.3 mph N/A   Clear
12:55 PM 60.8 °F - 33.8 °F 36% 29.97 in 10.0 mi NNE 18.4 mph 21.9 mph N/A   Clear
1:15 PM 60.8 °F - 33.8 °F 36% 29.97 in 10.0 mi NNE 18.4 mph - N/A   Clear
1:35 PM 60.8 °F - 33.8 °F 36% 29.97 in 10.0 mi North 16.1 mph 24.2 mph N/A   Clear
1:55 PM 60.8 °F - 33.8 °F 36% 29.98 in 10.0 mi NNE 13.8 mph 20.7 mph N/A   Clear
2:15 PM 60.8 °F - 33.8 °F 36% 29.97 in 10.0 mi NNE 18.4 mph 21.9 mph N/A   Clear
2:35 PM 60.8 °F - 33.8 °F 36% 29.97 in 10.0 mi NE 13.8 mph - N/A   Clear
2:55 PM 60.8 °F - 33.8 °F 36% 29.97 in 10.0 mi NNE 11.5 mph - N/A   Clear
3:15 PM 60.8 °F - 33.8 °F 36% 29.98 in 10.0 mi NE 12.7 mph 16.1 mph N/A   Clear
3:35 PM 60.8 °F - 33.8 °F 36% 29.98 in 10.0 mi NE 9.2 mph 17.3 mph N/A   Clear
3:55 PM 60.8 °F - 33.8 °F 36% 29.98 in 10.0 mi ENE 11.5 mph - N/A   Clear
4:15 PM 59.0 °F - 33.8 °F 39% 29.99 in 10.0 mi NE 10.4 mph - N/A   Clear
4:35 PM 59.0 °F - 33.8 °F 39% 29.99 in 10.0 mi ENE 12.7 mph - N/A   Clear
4:55 PM 57.2 °F - 33.8 °F 41% 30.00 in 10.0 mi ENE 10.4 mph - N/A   Clear
5:15 PM 55.4 °F - 33.8 °F 44% 30.00 in 10.0 mi ENE 5.8 mph - N/A   Clear
5:35 PM 53.6 °F - 35.6 °F 51% 30.01 in 10.0 mi ENE 4.6 mph - N/A   Mostly Cloudy
5:55 PM 51.8 °F - 35.6 °F 54% 30.01 in 10.0 mi NE 5.8 mph - N/A   Overcast
6:15 PM 51.8 °F - 35.6 °F 54% 30.02 in 10.0 mi NE 8.1 mph - N/A   Overcast
6:35 PM 51.8 °F - 35.6 °F 54% 30.03 in 10.0 mi NE 6.9 mph - N/A   Overcast
6:55 PM 50.0 °F - 35.6 °F 58% 30.03 in 10.0 mi NE 8.1 mph - N/A   Overcast
7:15 PM 50.0 °F - 35.6 °F 58% 30.03 in 10.0 mi NE 8.1 mph - N/A   Overcast
7:35 PM 48.2 °F - 35.6 °F 62% 30.04 in 10.0 mi NE 9.2 mph - N/A   Overcast
7:55 PM 48.2 °F - 33.8 °F 58% 30.04 in 10.0 mi NE 8.1 mph - N/A   Mostly Cloudy
8:15 PM 48.2 °F - 33.8 °F 58% 30.04 in 10.0 mi NE 8.1 mph - N/A   Mostly Cloudy
8:35 PM 46.4 °F 41.9 °F 33.8 °F 62% 30.05 in 10.0 mi NE 9.2 mph - N/A   Partly Cloudy
8:55 PM 44.6 °F 40.2 °F 33.8 °F 66% 30.05 in 10.0 mi NE 8.1 mph - N/A   Clear
9:15 PM 44.6 °F 40.2 °F 33.8 °F 66% 30.04 in 10.0 mi NE 8.1 mph - N/A   Clear
9:35 PM 44.6 °F 40.7 °F 33.8 °F 66% 30.04 in 10.0 mi ENE 6.9 mph - N/A   Clear
9:55 PM 44.6 °F 40.2 °F 33.8 °F 66% 30.05 in 10.0 mi NE 8.1 mph - N/A   Clear
10:15 PM 44.6 °F 40.2 °F 33.8 °F 66% 30.05 in 10.0 mi NE 8.1 mph - N/A   Scattered Clouds
10:35 PM 44.6 °F 40.2 °F 33.8 °F 66% 30.05 in 10.0 mi NE 8.1 mph - N/A   Mostly Cloudy
10:55 PM 44.6 °F 40.2 °F 35.6 °F 71% 30.04 in 10.0 mi ENE 8.1 mph - N/A   Overcast
11:15 PM 46.4 °F 41.9 °F 35.6 °F 66% 30.03 in 10.0 mi ENE 9.2 mph - N/A   Overcast
11:35 PM 48.2 °F - 35.6 °F 62% 30.03 in 10.0 mi ENE 10.4 mph - N/A   Overcast
11:55 PM 46.4 °F 41.9 °F 35.6 °F 66% 30.03 in 10.0 mi ENE 9.2 mph - N/A   Overcast